Regional Weather Roundup
Issued by NWS

Home | Current Version | Previous Version | Text Only | Print | Product List | Glossary Off
Versions: 1 2 3 4 5 6 7 8 9 10 11 12 13 14 15 16 17 18 19 20 21 22 23 24 25 26 27 28 29 30 31 32 33 34 35 36 37 38 39 40 41 42 43 44 45 46 47 48 49 50

000
ASUS43 KDTX 262101
RWRMI
MICHIGAN HOURLY REGIONAL WEATHER ROUNDUP
NATIONAL WEATHER SERVICE DETROIT/PONTIAC MI
400 PM EST FRI DEC 26 2014

NOTE: "FAIR" INDICATES FEW OR NO CLOUDS BELOW 12,000 FEET WITH NO
SIGNIFICANT WEATHER AND/OR OBSTRUCTION TO VISIBILITY.

MIZ047>049-052>055-059>063-066>070-074>076-081>083-262200-
SOUTHEAST LOWER MICHIGAN

CITY           SKY/WX    TMP DP  RH WIND       PRES   REMARKS
ADRIAN         MOCLDY    45  38  76 SW10      30.09R
ALMA           MOCLDY    46  37  71 SW5       30.03R
ANN ARBOR      PTCLDY    45  36  70 SW8       30.08R
BAD AXE        CLOUDY    41  37  88 CALM      30.04S
CARO           PTCLDY    45  36  71 SW6       30.04R
DETROIT CITY   CLEAR     47  36  65 SW9       30.09R
DETROIT        MOCLDY    46  37  71 S12       30.10R
FLINT          CLEAR     49  36  61 SW10      30.05S
GROSSE ILE     CLEAR     43  37  81 S9        30.08S
HILLSDALE      PTCLDY    46  38  74 S8        30.06R
HOWELL         CLEAR     47  36  65 S8        30.04R

CITY           SKY/WX    TMP DP  RH WIND       PRES   REMARKS
JACKSON        PTCLDY    48  36  63 SW9       30.05R
LAMBERTVILLE   PTCLDY    48  37  66 SW7       30.10R
LANSING        PTCLDY    47  35  63 SW10      30.05R
LAPEER         FAIR      46  34  63 SW8       30.05R
MASON          CLEAR     46  35  65 S6        30.05R
MONROE         PTCLDY    48  37  66 S9        30.08R
MT. CLEMENS    PTCLDY    44  38  80 S8        30.06R
PONTIAC        PTCLDY    45  35  68 S9        30.05R
PORT HOPE        N/A     40  33  76 SW3       30.03R
PORT HURON     CLEAR     43  36  75 S8        30.09R
TRI CITIES     CLOUDY    45  37  73 CALM      30.04R
TROY           PTCLDY    47  36  66 S9G16     30.09R
SAGINAW HB     MOCLDY    45  36  70 SW7       30.04R
$$
MIZ043>046-050>051-056>058-064>065-071>073-077>080-262200-
SOUTHWEST LOWER MICHIGAN

CITY           SKY/WX    TMP DP  RH WIND       PRES   REMARKS
BATTLE CREEK   MOSUNNY   48  37  65 S13       30.04S
BENTON HARBOR  PTSUNNY   49  38  65 S10       30.02R
BIG RAPIDS     CLOUDY    40  37  88 S6        30.00R
COLDWATER      MOSUNNY   47  37  68 S5        30.05R
FREMONT        CLOUDY    41  36  81 SW6       30.01R
HOLLAND        PTSUNNY   47  36  65 SW13      30.04R
GRAND RAPIDS   MOCLDY    46  36  68 SW9       30.03R
IONIA          FAIR      47  36  65 SW9       30.02R
KALAMAZOO      MOSUNNY   49  37  63 S10       30.04R
MARSHALL       CLEAR     47  37  67 SW8       30.04R
MOUNT PLEASANT CLOUDY    41  35  80 CALM      30.02R
MUSKEGON       CLOUDY    43  37  79 S10       30.02R
SOUTH HAVEN    PTSUNNY   49  37  62 SW6       30.02S
$$
MIZ016>042-262200-
NORTHERN LOWER MICHIGAN

CITY           SKY/WX    TMP DP  RH WIND       PRES   REMARKS
ALPENA         CLOUDY    39  33  79 SW6       30.01R WCI  35
BEAVER ISLAND  CLOUDY    39  37  91 CALM      29.99R
BELLAIRE       CLOUDY    41  35  79 CALM      30.00R
CADILLAC       CLOUDY    37  35  90 S5        29.98R WCI  33
CHARLEVOIX     CLOUDY    40  36  84 S6        30.02R
FRANKFORT      CLOUDY    40  37  89 SW5       29.99R
GAYLORD        CLOUDY    35  33  92 S5        29.98R WCI  31
GRAYLING       CLOUDY    38  34  86 S5        30.01R WCI  34
HARBOR SPRINGS CLOUDY    39  35  84 CALM      29.99S
HOUGHTON LAKE  CLOUDY    37  33  85 S3        30.01R
MANISTEE       CLOUDY    43  34  70 SW5       30.00R
OSCODA         CLOUDY    38  34  83 SW9       30.03R WCI  32
PELLSTON       CLOUDY    40  35  83 CALM      30.00R
ROGERS CITY    CLOUDY    40  36  87 S3        30.01R
TRAVERSE CITY  CLOUDY    43  36  76 SE6       29.99R
$$
MIZ007>008-015-262200-
EASTERN UPPER MICHIGAN

CITY           SKY/WX    TMP DP  RH WIND       PRES   REMARKS
KINROSS        CLOUDY    36  36 100 CALM      29.99R
MACKINAC ISLAN CLOUDY    39  37  92 SW5       29.99R
NEWBERRY       CLOUDY    32  32 100 CALM      29.99R FOG
S. S. MARIE    FOG       35  33  92 CALM      29.99R VSB 3/4
MUNISING         N/A     36  33  89 N3        29.99R
$$
MIZ004>006-011>014-085-262200-
CENTRAL UPPER MICHIGAN

CITY           SKY/WX    TMP DP  RH WIND       PRES   REMARKS
MANISTIQUE     DRIZZLE   33  33 100 N7        29.99R WCI  27
ESCANABA       CLOUDY    36  30  80 N5        29.98R WCI  32
MENOMINEE      CLOUDY    36  34  93 E8        29.98R WCI  29
SAWYER-GWINN   CLOUDY    32  30  93 N5        29.97R WCI  27
$$
MIZ001>003-009>011-084-262200-
WESTERN UPPER MICHIGAN

CITY           SKY/WX    TMP DP  RH WIND       PRES   REMARKS
IRON MOUNTAIN  CLOUDY    33  29  85 N6        29.97R WCI  28
HOUGHTON       CLOUDY    33  26  75 CALM      30.00R
COPPER HARBOR    N/A     36  26  67 NE5       30.01R WCI  32
IRONWOOD       CLOUDY    30  28  93 N5        29.98R WCI  25
$$

ABBREVIATIONS USED IN REMARKS
   TC - TEMPERATURE IN CELSIUS
  WCI - WIND CHILL INDEX
   HX - HEAT INDEX
  VSB - VISIBILITY



USA.gov is the U.S. government's official web portal to all federal, state and local government web resources and services.